Regional Weather Roundup
Issued by NWS

Home | Current Version | Previous Version | Graphics & Text | Print | Product List | Glossary On
Versions: 1 2 3 4 5 6 7 8 9 10 11 12 13 14 15 16 17 18 19 20 21 22 23 24 25 26 27 28 29 30 31 32 33 34 35 36 37 38 39 40 41 42 43 44 45 46 47 48 49 50
000
ASUS43 KLMK 050702
RWRKY
KENTUCKY REGIONAL WEATHER ROUNDUP
NATIONAL WEATHER SERVICE LOUISVILLE KY
200 AM EST THU MAR 05 2015

NOTE "FAIR" INDICATES FEW OR NO CLOUDS BELOW 12,000 FEET
WITH NO SIGNIFICANT WEATHER AND/OR OBSTRUCTIONS TO VISIBILITY.

KYZ001>023-026-027-061>063-070>075-050800-
WESTERN AND SOUTH CENTRAL KENTUCKY

CITY           SKY/WX    TMP DP  RH WIND       PRES   REMARKS
PADUCAH        FOG       18  14  84 NE16G28   30.30S VSB 3/4 WCI   3
HENDERSON      CLOUDY    19  10  68 N10       30.31R WCI   8
OWENSBORO      LGT SNOW  18  16  92 N7        30.29S VSB 3/4 WCI   9
HOPKINSVILLE   LGT SNOW  19  16  88 N13       30.24R FOG     WCI   6
BOWLING GREEN  LGT SNOW  23  19  85 N8        30.22R VSB 1   WCI  14
GLASGOW        NOT AVBL
$$

KYZ024-025-028>034-038-045-046-053-050800-
NORTH CENTRAL KENTUCKY

CITY           SKY/WX    TMP DP  RH WIND       PRES   REMARKS
LOUISVILLE/SDF LGT SNOW  22  18  85 N13       30.26R VSB 1   WCI  10
LOUISVILLE/LOU LGT SNOW  22  18  85 N8        30.25F FOG     WCI  12
FORT KNOX      LGT SNOW  21  18  89 N9        30.22R VSB 1   WCI  11
$$

KYZ035>037-039>044-047>052-055>060-089>105-050800-
NORTHEAST KENTUCKY

CITY           SKY/WX    TMP DP  RH WIND       PRES   REMARKS
LEXINGTON      FOG       23  21  92 N14       30.18R VSB 3/4 WCI  11
COVINGTON      CLOUDY    22  12  65 N16       30.22R WCI   8
FRANKFORT      SNOW      22  20  92 N9        30.20R VSB 1/2 WCI  12
$$

KYZ054-064>069-076>088-106>120-050800-
SOUTHEAST KENTUCKY

CITY           SKY/WX    TMP DP  RH WIND       PRES   REMARKS
JACKSON        FRZ RAIN  31  29  92 NE6       30.09R FOG     WCI  25
LONDON         FRZ RAIN  33  29  85 N10       30.09R FOG     WCI  25
SOMERSET       NOT AVBL
MIDDLESBORO    RAIN      36  34  91 N7        30.07R WCI  31
MONTICELLO     LGT SNOW  32  31  96 N12       30.15R FOG     WCI  23
$$



USA.gov is the U.S. government's official web portal to all federal, state and local government web resources and services.